Flag for U.S.A. Weather past 2 weeks in Aliso Viejo, California, U.S.A.

Now
70 °F

Passing clouds.


Feels Like: 69 °F
Forecast: 68 / 82 °F
Wind: 6 mph from South

Location: John Wayne Airport-Orange County Airport

Current Time: Aug 31, 2015 at 12:14:04 AM

Latest Report: Aug 30, 2015 at 10:53 PM


Visibility: 7 mi

Pressure: 29.85 "Hg

Humidity: 84%

Dew point: 65 °F

Location of Aliso ViejoLocation

Historic Weather in Aliso Viejo — Graph

°F

Aliso Viejo temperature yesterday

Maximum temperature yesterday: 82 °F (at 12:53 PM)
Minimum temperature yesterday: 70 °F (at 9:53 PM)
Average temperature yesterday: 75 °F

Past Weeks' High & Low Weather Summary

 TemperatureHumidityPressure
High91 °F (Aug 28, 11:53 AM)93% (Aug 16, 2:53 AM)29.98 "Hg (Aug 16, 2:53 AM)
Low67 °F (Aug 23, 1:53 AM)32% (Aug 28, 11:53 AM)29.79 "Hg (Aug 16, 5:53 PM)
Average75 °F72%29.89 "Hg
* Reported Aug 15 10:53 PM — Aug 30 10:53 PM, Aliso Viejo, Weather by CustomWeather, © 2015

Note: Actual official high and low records may vary slightly from our data, if they occured in-between our weather recording intervals... More about our weather records

Advertising

Aliso Viejo weather history for previous 24 hours

 ConditionsComfort  
Time TempWeatherWind HumidityBarometerVisibility
10:53 PM
Sun, Aug 30
70 °FPassing clouds.6 mph84%29.85 "Hg7 mi
9:53 PM70 °FPassing clouds.5 mph84%29.85 "Hg7 mi
8:53 PM71 °FPassing clouds.6 mph81%29.84 "Hg10 mi
7:53 PM72 °FPassing clouds.5 mph78%29.82 "Hg10 mi
6:53 PM74 °FPassing clouds.6 mph71%29.82 "Hg10 mi
5:53 PM78 °FScattered clouds.6 mph60%29.82 "Hg10 mi
4:53 PM80 °FScattered clouds.9 mph58%29.83 "Hg10 mi
3:53 PM82 °FScattered clouds.12 mph58%29.83 "Hg10 mi
2:53 PM81 °FScattered clouds.9 mph62%29.85 "Hg10 mi
1:53 PM82 °FScattered clouds.9 mph60%29.88 "Hg10 mi
12:53 PM82 °FScattered clouds.13 mph63%29.89 "Hg10 mi
11:53 AM81 °FSunny.13 mph67%29.90 "Hg10 mi
10:53 AM80 °FSunny.10 mph64%29.91 "Hg10 mi
9:53 AM78 °FPassing clouds.7 mph71%29.90 "Hg10 mi
8:53 AM76 °FSunny.No wind77%29.90 "Hg10 mi
7:53 AM73 °FPassing clouds.3 mph84%29.90 "Hg10 mi
6:53 AM71 °FPassing clouds.No wind93%29.88 "Hg8 mi
5:53 AM72 °FClear.3 mph91%29.87 "Hg10 mi
4:53 AM71 °FClear.No wind87%29.85 "Hg10 mi
3:53 AM72 °FClear.3 mph91%29.86 "Hg9 mi
2:53 AM72 °FClear.5 mph87%29.85 "Hg10 mi
1:53 AM73 °FClear.5 mph84%29.85 "Hg10 mi
12:53 AM74 °FClear.No wind85%29.85 "Hg10 mi
Weather by CustomWeather, © 2015

See weather overviewHow to use our weather pages